Temperature
11 11 11 11 11 11 11 11 11 11 11 11 11 11 11 11 11 11 11 11 11 11 11 11 10 10 10 10 10 10 10 10 11 11 11 11 10 10 10 10 10 10 10
11 11 11 11 11 11 11 11 11 11 11 10 10 10 10 10 10 10 10 10 10 10 10 10 10 10 10 10 10 9 10 10 10 10 10 10 10 10 10 10 10 10 9
10 10 10 10 10 10 10 10 10 10 10 10 10 10 10 10 10 10 10 10 10 10 10 10 10 10 9 9 9 9 9 9 9 9 9 9 9 9 9 9 9 9 9
9 10 10 10 10 10 10 10 10 10 10 10 10 10 10 10 10 10 10 10 10 10 10 10 9 9 9 9 9 9 9 9 9 9 9 9 9 9 9 9 9 8 8
9 9 9 9 9 9 9 9 9 9 9 9 10 9 9 9 9 9 9 9 9 9 9 9 9 9 9 9 9 8 8 8 8 8 8 8 8 8 8 8 8 8 8
9 9 9 9 9 9 9 9 9 9 9 9 9 9 9 9 9 9 9 9 9 9 9 9 9 9 9 9 8 8 8 8 8 8 8 8 8 8 8 7 7 7 7
8 8 8 8 8 9 8 8 8 8 8 8 8 8 8 8 8 8 8 9 9 9 9 9 9 9 8 8 8 8 8 8 8 8 8 7 7 7 7 7 7 7 7
8 8 8 8 8 8 8 8 8 8 8 8 8 8 7 7 8 8 8 8 8 8 8 8 8 8 8 8 8 8 8 8 8 7 7 7 7 7 7 6 6 7 7
7 7 7 7 8 8 7 7 8 8 8 7 7 7 7 7 7 7 7 7 7 7 8 8 8 8 8 8 8 8 7 7 7 7 7 7 6 6 6 6 6 6 6
7 7 7 7 7 7 7 7 7 7 7 7 7 7 7 7 7 6 7 7 7 7 7 7 7 7 7 7 7 7 7 7 7 7 7 6 6 6 6 6 6 6 6
7 7 7 7 7 7 7 7 7 7 7 7 7 7 7 7 7 6 6 7 7 7 7 7 7 7 7 7 7 7 7 7 6 6 6 6 6 6 6 5 5 5 5
6 6 6 6 6 6 7 7 7 7 6 6 6 6 6 6 6 6 6 6 6 7 6 6 6 6 6 6 6 6 6 6 6 6 6 6 6 6 6 5 5 5 5
6 6 6 6 6 6 6 6 6 6 6 6 6 6 6 6 6 6 6 6 6 6 6 6 6 6 6 6 6 6 6 6 6 6 5 5 5 5 5 5 5 5 5
6 6 6 6 6 6 6 6 6 6 6 6 6 6 6 6 5 5 5 5 5 5 5 6 6 6 6 6 6 5 5 5 5 5 5 5 5 5 5 5 4 4 4
6 5 5 5 5 5 6 5 6 6 5 5 5 5 5 5 5 5 5 5 4 4 4 5 5 5 5 5 5 5 5 5 5 5 5 5 4 4 4 4 4 4 4
5 5 5 5 5 5 5 5 5 5 5 5 5 5 5 5 5 5 4 4 4 4 4 4 4 4 4 4 4 4 4 4 4 4 4 4 4 4 4 4 3 3 3
5 5 5 5 5 5 5 5 5 5 5 5 5 4 4 4 4 4 4 4 4 4 3 4 4 4 4 4 4 4 4 4 4 4 4 4 4 3 3 3 3 3 2
5 4 4 4 4 4 4 4 4 4 4 4 4 4 4 4 4 4 3 3 3 3 3 3 3 3 3 3 3 3 3 3 3 3 3 3 3 3 2 2 2 2 2
4 4 4 4 4 4 4 4 4 4 4 4 4 4 4 3 3 3 3 3 3 3 3 2 3 3 3 3 3 3 3 3 3 3 3 2 2 2 2 1 1 1 1
4 4 4 4 4 4 4 4 4 4 3 3 3 3 3 3 3 3 3 2 2 2 2 2 2 2 2 2 2 2 2 2 2 2 2 2 1 1 1 1 1 1 1
4 3 3 3 3 3 3 3 3 3 3 3 3 3 3 3 3 2 2 2 2 2 2 1 1 1 2 2 2 2 1 1 1 1 1 1 1 1 1 0 0 0 0
3 3 3 3 3 3 3 3 3 3 3 3 3 2 2 2 2 2 2 2 2 1 1 1 1 1 1 1 1 1 1 0 0 1 0 1 1 0 0 0 -0 -0 -0
3 3 3 3 3 3 2 2 2 2 2 2 2 2 2 2 2 2 1 1 1 1 1 0 0 0 0 0 0 0 -0 -0 -0 -0 -0 -0 0 -0 -0 -0 -1 -1 -1
3 3 3 2 2 2 2 2 2 2 2 2 2 2 2 2 1 1 1 1 1 1 0 0 0 0 -0 -0 -0 -1 -1 -1 -1 -1 -1 -1 -1 -1 -1 -1 -1 -1 -1
2 2 2 2 2 2 2 2 1 1 1 1 1 1 1 1 1 0 0 0 0 0 0 -0 -0 -0 -1 -1 -1 -1 -1 -1 -1 -1 -1 -2 -1 -1 -1 -1 -1 -1 -2
2 2 2 2 2 2 1 1 1 1 1 1 1 1 0 0 0 -0 -0 -0 -0 -0 -1 -1 -1 -1 -1 -1 -1 -1 -1 -2 -2 -2 -2 -2 -2 -2 -2 -2 -2 -2 -2
Wind_Speed
2 3 3 4 5 6 5 5 5 5 5 5 5 6 5 5 4 4 4 4 4 4 5 6 7 8 8 8 7 7 7 7 7 7 7 7 7 7 7 8 8 8 8
2 3 3 3 4 5 6 5 5 5 4 4 4 5 5 4 4 5 4 4 4 4 5 5 6 7 7 6 6 6 6 6 6 6 6 6 6 5 6 6 6 6 6
3 4 3 3 4 6 7 6 5 5 4 4 3 4 4 4 4 4 4 5 4 4 4 5 5 6 5 5 5 4 4 4 4 4 4 4 4 4 4 4 4 5 5
3 3 3 3 4 6 5 4 3 3 3 3 2 2 3 3 4 4 4 4 4 4 5 5 4 5 5 4 4 3 3 3 3 3 2 2 2 2 2 2 3 3 3
4 3 3 3 6 5 4 4 2 3 3 3 2 2 2 2 2 3 4 4 4 5 5 5 4 4 3 3 3 3 3 2 2 2 1 1 1 1 0 0 1 1 2
4 4 3 3 5 4 3 3 3 3 3 3 3 2 2 1 2 2 1 3 3 4 5 4 4 3 3 2 2 2 3 2 2 2 2 2 2 2 2 2 2 2 2
4 4 3 3 3 3 3 4 3 4 2 2 2 2 2 2 1 0 1 2 2 2 3 3 3 3 2 2 1 2 2 3 2 2 3 4 4 4 4 4 4 3 4
3 4 3 2 2 3 4 3 4 2 1 1 2 2 1 2 2 1 1 0 1 2 2 2 2 2 2 2 1 1 2 2 3 4 4 5 5 5 6 5 5 5 5
3 4 4 3 3 3 3 3 4 3 2 0 1 2 2 2 1 1 1 0 0 0 0 1 1 1 1 1 0 1 2 3 4 5 5 6 6 6 7 7 7 6 6
2 4 4 4 3 3 3 3 2 2 3 2 0 0 1 2 2 1 2 1 1 1 1 1 1 2 2 1 1 2 2 3 5 6 7 7 7 8 8 8 8 8 8
2 3 3 3 3 2 3 3 2 3 3 3 2 1 1 1 1 2 2 2 2 2 2 2 2 2 3 3 2 3 3 4 6 7 7 8 8 8 8 9 9 9 9
1 2 3 3 3 3 3 3 3 3 3 2 2 2 2 2 2 2 2 2 3 2 2 2 3 3 4 4 4 4 4 5 6 7 8 8 8 9 9 10 10 10 10
1 2 2 3 3 4 4 3 3 3 3 3 3 2 2 2 2 2 2 2 2 2 2 2 3 4 4 4 4 5 6 7 7 8 9 9 9 9 10 11 11 11 11
2 2 2 2 2 3 4 4 3 3 3 3 3 2 2 2 2 2 2 2 2 2 2 4 2 4 4 4 5 5 6 7 8 9 10 10 10 10 10 11 11 12 11
2 3 2 2 2 3 3 3 2 2 3 3 3 2 2 2 2 2 2 3 3 3 4 4 3 2 4 4 5 5 6 7 7 9 10 10 10 10 10 10 11 11 11
2 3 2 2 2 2 2 3 2 2 2 2 2 3 2 2 2 2 3 3 3 4 5 3 4 2 3 4 6 6 7 8 8 9 9 10 10 10 10 10 10 11 11
2 3 3 2 2 2 2 3 2 3 3 2 2 3 3 3 3 3 3 3 3 3 5 4 3 2 3 4 4 6 7 8 9 9 10 10 11 11 11 10 11 11 12
2 2 2 2 2 2 2 3 3 3 4 4 4 3 4 3 3 3 3 4 4 4 5 6 4 3 4 4 4 4 6 7 8 10 11 11 11 11 11 11 11 12 12
2 2 2 2 2 2 3 3 4 4 4 4 4 5 5 4 5 4 4 4 4 4 4 4 5 3 3 2 3 4 4 5 7 9 10 11 11 11 11 11 11 11 11
2 2 2 3 3 3 3 3 3 4 4 4 5 5 5 6 6 5 5 5 4 4 3 4 4 4 3 2 2 3 4 3 4 6 8 9 10 10 10 11 11 11 11
2 2 2 2 2 2 3 3 4 4 4 4 4 5 5 7 8 7 6 6 5 4 4 4 4 4 4 3 4 3 4 3 4 4 3 5 6 7 8 10 10 10 11
1 2 2 3 3 3 5 6 4 4 5 5 5 5 5 6 8 9 10 9 8 6 6 5 5 6 6 5 3 3 3 3 4 3 2 4 3 5 6 8 10 11 11
1 2 3 3 4 5 6 6 6 4 4 5 5 5 4 5 6 5 8 9 9 10 10 7 7 7 6 6 4 4 4 5 6 3 2 5 3 4 6 8 10 11 11
2 2 3 3 4 5 6 6 6 3 4 4 5 5 6 5 6 6 5 6 6 7 8 7 7 7 6 5 6 6 5 3 3 3 3 4 3 4 5 6 9 9 8
2 3 3 3 4 5 6 6 5 3 4 5 5 5 6 6 9 9 6 6 6 6 8 10 10 9 9 9 6 2 2 2 4 4 3 3 2 2 3 4 6 6 6
3 2 3 3 4 4 6 6 5 2 3 4 4 5 7 8 9 9 6 6 6 6 4 4 5 6 6 7 8 6 4 4 3 3 3 2 2 1 2 2 2 4 5
Wind_Direction
135 121 110 109 114 117 112 106 101 101 98 95 95 97 95 95 95 92 85 95 120 130 135 132 132 128 123 118 111 105 100 99 96 93 89 85 80 74 71 70 69 66 63
146 141 130 122 119 124 122 115 115 111 105 102 91 90 88 89 91 91 86 83 94 121 144 140 136 134 127 122 118 109 106 100 99 97 94 90 85 78 72 70 66 61 57
149 142 138 134 127 125 116 105 100 105 105 96 90 85 83 82 89 89 87 81 79 85 122 139 136 134 134 131 129 124 120 117 112 108 106 99 92 84 75 69 64 57 53
126 127 135 139 132 124 116 115 107 108 105 101 91 75 73 77 76 83 87 88 86 85 92 114 130 137 139 143 142 139 131 132 136 129 124 118 109 99 84 66 57 46 36
124 122 127 137 134 124 123 131 116 117 121 108 94 68 54 58 68 77 81 89 96 98 95 97 105 115 136 152 159 161 161 154 156 172 173 168 180 177 153 33 19 7 358
132 123 116 124 132 127 124 122 122 99 120 120 93 62 39 38 67 79 97 96 99 99 103 101 96 99 118 151 169 185 190 188 196 212 239 244 243 246 244 262 285 308 318
128 123 123 121 125 130 138 131 123 106 93 105 87 58 22 21 54 58 80 95 89 93 104 105 103 103 102 123 165 201 221 222 229 230 248 256 261 270 268 266 269 280 289
120 128 128 139 133 127 127 125 123 118 97 108 125 121 45 352 356 8 39 118 97 84 90 107 113 115 113 107 159 222 232 240 248 247 252 257 261 269 274 274 269 272 280
123 121 127 134 135 136 155 150 143 141 153 134 136 150 159 208 281 330 348 37 82 63 55 128 146 165 158 136 145 258 252 254 260 259 260 262 262 267 277 276 275 268 271
126 119 124 131 141 143 159 168 150 144 153 164 102 46 145 160 173 257 311 327 316 266 260 256 218 225 211 197 231 263 268 266 266 267 265 266 268 267 274 276 281 273 270
132 129 130 134 150 161 168 167 154 154 161 167 173 166 121 68 160 187 243 281 312 280 266 254 227 222 230 224 231 255 266 272 271 271 270 269 272 273 276 278 280 278 272
151 138 151 157 167 174 175 174 169 169 170 164 167 176 176 183 192 186 220 248 264 272 273 253 236 224 233 235 239 250 260 269 272 274 274 273 275 279 278 280 279 279 275
178 180 167 171 176 178 174 169 170 182 180 175 181 193 197 211 190 188 201 238 259 276 275 259 239 228 234 238 249 255 257 264 269 273 276 277 278 280 280 278 278 280 278
182 180 175 184 187 176 171 168 175 187 183 183 192 189 199 217 201 195 194 200 262 281 267 259 260 230 241 247 251 251 257 263 267 273 276 279 279 280 280 278 277 278 275
171 160 167 178 186 176 167 166 177 182 180 191 197 197 210 223 217 210 197 197 199 242 256 244 241 243 249 257 260 252 260 266 272 274 274 275 276 276 275 276 277 278 274
169 161 171 181 187 174 170 171 179 182 183 204 204 199 216 222 215 214 204 210 211 219 248 241 237 256 257 265 269 264 262 269 271 273 279 277 274 272 273 275 276 277 274
165 163 174 175 177 182 180 180 188 190 197 213 218 212 222 217 214 215 212 212 215 215 245 268 257 258 242 250 266 264 262 263 267 269 271 272 274 272 272 273 275 275 275
174 176 171 171 192 196 193 192 199 204 207 214 223 224 233 229 226 222 219 219 222 221 229 257 267 255 248 249 251 258 265 264 266 270 271 270 272 274 271 269 272 274 273
175 185 178 192 208 212 213 213 210 216 221 222 222 225 231 223 234 234 229 228 229 232 230 244 264 261 258 258 264 271 273 266 271 272 271 271 272 274 274 274 274 275 274
180 195 204 212 216 218 222 223 222 229 233 232 228 226 226 224 229 231 234 231 227 228 230 244 261 267 263 258 249 265 278 264 269 279 271 272 273 273 275 279 277 274 271
201 205 213 227 231 226 225 223 223 229 232 237 241 238 236 236 235 232 236 229 221 224 226 242 259 269 263 253 251 246 265 282 277 253 263 270 270 271 273 273 272 271 270
213 211 222 228 238 244 250 247 245 231 230 231 240 245 246 243 246 247 248 241 229 226 229 235 248 254 257 251 251 249 261 279 278 232 239 272 255 261 265 265 266 270 267
226 236 241 237 246 253 259 256 252 249 236 237 238 239 250 249 251 243 250 250 244 243 238 233 242 245 246 238 235 245 245 256 263 251 257 274 264 268 273 271 271 269 263
238 245 250 248 254 264 272 271 264 253 245 245 243 237 239 244 244 241 240 244 242 243 243 238 237 243 244 235 230 239 241 256 275 257 227 258 263 268 284 278 273 265 259
261 255 254 251 258 272 276 277 274 251 252 252 248 242 238 239 248 250 244 244 252 254 254 249 249 252 252 250 240 228 228 257 276 263 216 229 253 277 284 278 273 269 268
260 266 273 265 262 269 277 277 276 252 259 261 258 250 251 252 255 252 238 232 245 252 242 250 250 255 251 242 232 219 214 238 266 257 208 203 232 270 287 276 273 284 283
Height
1512 1514 1516 1518 1520 1521 1523 1525 1527 1528 1530 1532 1534 1535 1537 1538 1539 1540 1541 1542 1543 1544 1545 1545 1546 1547 1547 1547 1548 1548 1548 1548 1549 1549 1549 1549 1549 1549 1549 1550 1550 1549 1549
1510 1511 1513 1516 1518 1520 1522 1524 1525 1527 1529 1531 1532 1534 1535 1537 1538 1539 1540 1541 1542 1543 1543 1544 1545 1545 1546 1546 1547 1547 1547 1547 1548 1548 1548 1548 1548 1549 1549 1549 1549 1549 1548
1508 1509 1511 1513 1516 1518 1520 1522 1524 1526 1527 1529 1531 1532 1534 1535 1536 1537 1538 1539 1540 1541 1542 1543 1544 1544 1544 1545 1545 1546 1546 1546 1546 1547 1547 1547 1547 1547 1547 1548 1548 1548 1547
1506 1507 1509 1511 1514 1516 1518 1520 1522 1524 1525 1527 1529 1530 1532 1533 1534 1536 1537 1538 1539 1540 1540 1541 1542 1543 1543 1543 1544 1544 1545 1545 1545 1545 1546 1546 1546 1546 1546 1546 1546 1546 1546
1504 1506 1507 1509 1512 1514 1516 1518 1520 1522 1523 1525 1526 1528 1530 1531 1532 1533 1535 1536 1537 1538 1539 1539 1540 1541 1541 1542 1542 1542 1543 1543 1543 1543 1544 1544 1544 1544 1544 1544 1544 1544 1544
1502 1504 1506 1507 1509 1512 1514 1516 1518 1520 1521 1523 1524 1526 1527 1529 1530 1531 1532 1533 1534 1535 1536 1537 1538 1538 1539 1540 1540 1540 1541 1541 1541 1541 1542 1542 1542 1542 1542 1542 1542 1542 1542
1499 1501 1503 1505 1507 1509 1511 1513 1515 1517 1519 1521 1522 1523 1525 1526 1527 1528 1529 1531 1532 1533 1534 1534 1535 1536 1536 1537 1537 1538 1538 1539 1539 1539 1539 1539 1540 1540 1540 1540 1540 1540 1540
1497 1499 1501 1503 1505 1507 1509 1511 1513 1514 1516 1518 1520 1521 1522 1524 1524 1525 1526 1528 1529 1530 1531 1532 1532 1533 1534 1534 1535 1535 1535 1536 1536 1536 1536 1537 1537 1537 1537 1537 1537 1537 1537
1495 1496 1499 1501 1503 1505 1507 1508 1511 1512 1514 1516 1518 1519 1520 1520 1521 1522 1523 1525 1526 1527 1528 1529 1529 1530 1531 1531 1532 1532 1532 1533 1533 1533 1533 1533 1534 1534 1534 1534 1534 1534 1533
1492 1494 1496 1499 1501 1503 1505 1507 1509 1510 1512 1513 1515 1516 1518 1518 1519 1519 1520 1521 1523 1524 1524 1525 1526 1527 1527 1528 1528 1529 1529 1529 1529 1530 1530 1530 1530 1530 1530 1530 1530 1530 1529
1490 1491 1494 1496 1498 1501 1503 1504 1506 1508 1510 1511 1512 1513 1514 1515 1516 1516 1516 1517 1518 1520 1521 1521 1522 1523 1523 1524 1525 1525 1525 1525 1526 1526 1526 1526 1526 1526 1526 1526 1526 1525 1525
1487 1489 1491 1494 1496 1498 1500 1501 1503 1505 1507 1509 1510 1511 1511 1512 1513 1513 1513 1513 1514 1515 1516 1517 1518 1519 1519 1520 1521 1521 1521 1521 1521 1522 1521 1521 1521 1521 1521 1521 1521 1520 1520
1485 1486 1489 1491 1493 1495 1497 1499 1501 1503 1504 1505 1507 1507 1508 1509 1510 1510 1510 1510 1510 1510 1511 1513 1513 1514 1515 1516 1516 1516 1516 1517 1517 1517 1517 1517 1516 1516 1516 1516 1516 1515 1515
1482 1484 1487 1489 1491 1492 1494 1496 1498 1499 1501 1502 1503 1504 1505 1506 1507 1507 1507 1508 1507 1506 1507 1507 1508 1510 1510 1511 1511 1511 1511 1512 1512 1512 1511 1511 1511 1511 1510 1510 1510 1509 1509
1480 1482 1484 1486 1488 1489 1491 1493 1494 1496 1497 1499 1500 1500 1501 1502 1503 1503 1504 1505 1505 1503 1502 1503 1504 1505 1505 1506 1506 1506 1506 1506 1506 1506 1506 1506 1506 1505 1505 1504 1504 1504 1503
1478 1480 1481 1483 1485 1486 1488 1489 1491 1492 1494 1495 1496 1497 1497 1498 1499 1499 1499 1500 1500 1500 1498 1498 1499 1500 1500 1500 1501 1501 1501 1501 1501 1500 1500 1500 1499 1499 1498 1498 1498 1497 1497
1476 1477 1479 1481 1482 1483 1485 1486 1487 1489 1490 1491 1492 1492 1493 1494 1494 1495 1495 1496 1495 1495 1494 1493 1494 1495 1495 1495 1495 1495 1495 1495 1495 1495 1494 1493 1493 1493 1492 1491 1491 1491 1490
1474 1475 1477 1478 1479 1480 1481 1482 1484 1485 1486 1487 1487 1488 1488 1489 1489 1490 1490 1490 1490 1491 1490 1489 1488 1489 1490 1490 1489 1489 1489 1489 1488 1488 1488 1487 1487 1486 1486 1485 1485 1484 1484
1472 1473 1474 1475 1476 1477 1478 1479 1480 1481 1482 1483 1483 1483 1484 1484 1484 1485 1485 1485 1485 1485 1485 1484 1483 1484 1484 1484 1483 1483 1482 1482 1482 1482 1481 1481 1480 1480 1479 1479 1478 1478 1478
1470 1471 1471 1472 1473 1474 1475 1475 1476 1477 1477 1478 1478 1479 1479 1479 1479 1479 1479 1480 1480 1480 1479 1479 1478 1478 1478 1478 1477 1476 1475 1476 1475 1475 1475 1474 1474 1473 1473 1472 1472 1472 1471
1467 1468 1469 1469 1470 1470 1471 1471 1472 1472 1473 1473 1473 1474 1474 1474 1474 1474 1474 1474 1474 1474 1474 1473 1472 1472 1472 1472 1471 1471 1470 1469 1468 1469 1468 1468 1468 1467 1466 1466 1466 1465 1465
1464 1465 1465 1466 1466 1466 1467 1467 1468 1468 1468 1468 1468 1468 1468 1469 1468 1468 1468 1469 1469 1469 1468 1468 1467 1466 1466 1466 1466 1465 1465 1463 1462 1463 1462 1461 1461 1460 1460 1460 1459 1459 1458
1461 1461 1462 1462 1462 1462 1463 1463 1463 1463 1463 1463 1463 1463 1463 1463 1463 1462 1462 1462 1462 1462 1463 1463 1461 1460 1461 1461 1461 1460 1459 1458 1457 1457 1457 1454 1455 1454 1454 1453 1453 1452 1452
1458 1458 1458 1458 1458 1458 1459 1459 1459 1458 1458 1458 1457 1457 1457 1457 1457 1457 1456 1456 1455 1456 1456 1456 1456 1455 1455 1455 1454 1454 1453 1452 1451 1451 1451 1449 1448 1448 1448 1447 1447 1446 1446
1455 1454 1454 1454 1454 1454 1454 1454 1454 1453 1452 1452 1452 1452 1451 1451 1451 1451 1450 1449 1449 1449 1450 1450 1449 1449 1448 1448 1448 1448 1447 1446 1445 1444 1445 1444 1443 1442 1441 1441 1441 1441 1440
1451 1451 1451 1451 1450 1450 1450 1449 1449 1448 1447 1446 1446 1446 1446 1445 1445 1445 1444 1443 1443 1443 1443 1443 1443 1442 1442 1442 1442 1442 1441 1441 1439 1439 1439 1439 1438 1437 1436 1435 1436 1436 1435